CW5316 Weather Reports


Display with metric or nautical units.
time (UTC)temp
F
wind
direction
speed
MPH
gust
MPH
rain 1hr
in
rain 24hr
in
rain mn
in
humidity
%
barometer
mb
20260504050524 60 0 0.0 1.0 0.00 0.00 0.00 67 1010.7
20260504045521 61 0 0.0 1.0 0.00 0.00 0.00 65 1010.9
20260504045020 61 0 0.0 0.0 0.00 0.00 0.00 63 1010.8
20260504044538 60 0 0.0 0.0 0.00 0.00 0.00 63 1010.8
20260504044020 60 0 0.0 0.0 0.00 0.00 0.00 64 1010.7
20260504043522 60 0 0.0 0.0 0.00 0.00 0.00 64 1010.6
20260504043039 61 0 0.0 0.0 0.00 0.00 0.00 65 1010.6
20260504042521 61 0 0.0 0.0 0.00 0.00 0.00 64 1010.5
20260504042020 61 0 0.0 0.0 0.00 0.00 0.00 63 1010.5
20260504041537 61 0 0.0 0.0 0.00 0.00 0.00 62 1010.4
20260504041019 62 0 0.0 0.0 0.00 0.00 0.00 63 1010.4
20260504040522 62 0 0.0 0.0 0.00 0.00 0.00 63 1010.4
20260504040041 62 0 0.0 0.0 0.00 0.00 0.00 63 1010.5
20260504035524 62 0 0.0 0.0 0.00 0.00 0.00 63 1010.3
20260504035018 62 0 0.0 0.0 0.00 0.00 0.00 64 1010.3
20260504034542 63 0 0.0 0.0 0.00 0.00 0.00 63 1010.2
20260504034023 63 0 0.0 0.0 0.00 0.00 0.00 63 1010.3
20260504033519 63 0 0.0 1.0 0.00 0.00 0.00 62 1010.2
20260504033049 64 0 0.0 1.0 0.00 0.00 0.00 61 1010.2
20260504032520 64 252 0.0 1.0 0.00 0.00 0.00 61 1010.1
20260504032021 64 0 0.0 1.0 0.00 0.00 0.00 62 1010.2
20260504031538 64 0 0.0 2.0 0.00 0.00 0.00 60 1010.1
20260504031019 65 0 0.0 2.0 0.00 0.00 0.00 60 1010.1
20260504030519 65 0 0.0 2.0 0.00 0.00 0.00 59 1010.1
20260504030039 65 0 0.0 0.0 0.00 0.00 0.00 59 1010.0
20260504025520 65 0 0.0 0.0 0.00 0.00 0.00 59 1009.9
20260504025022 66 0 0.0 0.0 0.00 0.00 0.00 59 1009.9
20260504024554 66 0 0.0 0.0 0.00 0.00 0.00 59 1009.9
20260504024022 66 0 0.0 0.0 0.00 0.00 0.00 59 1009.9
20260504023521 66 0 0.0 0.0 0.00 0.00 0.00 58 1009.9
20260504023044 67 0 0.0 2.0 0.00 0.00 0.00 58 1010.0
20260504022521 67 0 0.0 2.0 0.00 0.00 0.00 56 1010.0
20260504022020 68 255 0.0 2.0 0.00 0.00 0.00 55 1010.1
20260504021548 68 0 0.0 2.0 0.00 0.00 0.00 53 1010.0
20260504021022 69 255 0.0 1.0 0.00 0.00 0.00 53 1010.1
20260504020520 69 0 0.0 0.0 0.00 0.00 0.00 53 1010.1
20260504020046 70 0 0.0 0.0 0.00 0.00 0.00 51 1010.1
20260504015521 69 0 0.0 1.0 0.00 0.00 0.00 51 1010.1
20260504015022 70 0 0.0 2.0 0.00 0.00 0.00 50 1010.1
20260504014538 70 0 0.0 2.0 0.00 0.00 0.00 48 1010.1
20260504014023 71 0 0.0 2.0 0.00 0.00 0.00 48 1010.2
20260504013522 71 0 0.0 3.0 0.00 0.00 0.00 48 1010.2
20260504013046 72 0 0.0 3.0 0.00 0.00 0.00 47 1010.2
20260504012521 73 270 0.0 3.0 0.00 0.00 0.00 46 1010.2
20260504012022 73 249 0.0 2.0 0.00 0.00 0.00 43 1010.3
20260504011542 74 0 0.0 2.0 0.00 0.00 0.00 43 1010.4
20260504011022 74 263 0.0 2.0 0.00 0.00 0.00 43 1010.4
20260504010520 75 273 0.0 3.0 0.00 0.00 0.00 42 1010.5
20260504010038 76 0 0.0 3.0 0.00 0.00 0.00 41 1010.5
20260504005521 77 0 0.0 3.0 0.00 0.00 0.00 36 1010.6
20260504005020 77 0 0.0 3.0 0.00 0.00 0.00 41 1010.6
20260504004546 78 252 0.0 2.0 0.00 0.00 0.00 41 1010.7
20260504004019 78 0 0.0 3.0 0.00 0.00 0.00 39 1010.7
20260504003520 78 0 0.0 3.0 0.00 0.00 0.00 41 1010.8
20260504003038 78 29 0.0 3.0 0.00 0.00 0.00 42 1010.8
20260504002519 79 0 0.0 3.0 0.00 0.00 0.00 42 1010.8
20260504002019 79 0 0.0 3.0 0.00 0.00 0.00 45 1010.9
20260504001540 79 234 0.0 7.0 0.00 0.00 0.00 42 1010.8
20260504001025 79 94 0.0 7.0 0.00 0.00 0.00 42 1010.9
20260504000524 79 64 1.0 7.0 0.00 0.00 0.00 41 1010.9
20260504000045 80 214 1.0 6.0 0.00 0.00 0.00 40 1011.0
20260503235521 80 269 0.0 3.0 0.00 0.00 0.00 42 1011.0
20260503235019 80 229 0.0 2.0 0.00 0.00 0.00 42 1011.0
20260503234539 80 76 0.0 2.0 0.00 0.00 0.00 42 1011.0
20260503234024 80 0 0.0 2.0 0.00 0.00 0.00 41 1011.0
20260503233519 80 0 0.0 3.0 0.00 0.00 0.00 42 1011.0
20260503233038 81 0 0.0 3.0 0.00 0.00 0.00 41 1011.0
20260503232519 81 0 0.0 3.0 0.00 0.00 0.00 40 1011.1
20260503232036 82 317 1.0 3.0 0.00 0.00 0.00 37 1011.1
20260503231549 82 342 0.0 5.0 0.00 0.00 0.00 38 1011.2
20260503231022 82 0 1.0 7.0 0.00 0.00 0.00 39 1011.2
20260503230521 81 0 0.0 7.0 0.00 0.00 0.00 37 1011.2
20260503230037 81 40 0.0 4.0 0.00 0.00 0.00 38 1011.2
20260503225521 81 130 1.0 4.0 0.00 0.00 0.00 39 1011.3
20260503225021 82 82 0.0 8.0 0.00 0.00 0.00 39 1011.4
20260503224535 81 53 1.0 8.0 0.00 0.00 0.00 38 1011.4
20260503224021 83 196 0.0 3.0 0.00 0.00 0.00 37 1011.5
20260503223524 82 246 0.0 3.0 0.00 0.00 0.00 41 1011.6
20260503223041 82 96 1.0 3.0 0.00 0.00 0.00 37 1011.6
20260503222522 82 0 0.0 3.0 0.00 0.00 0.00 37 1011.6
20260503222019 82 263 0.0 4.0 0.00 0.00 0.00 38 1011.6
20260503221540 82 275 0.0 4.0 0.00 0.00 0.00 37 1011.7
20260503221022 81 288 1.0 3.0 0.00 0.00 0.00 37 1011.6
20260503220520 81 48 1.0 3.0 0.00 0.00 0.00 41 1011.7
20260503220040 80 0 0.0 4.0 0.00 0.00 0.00 40 1011.8
20260503215521 81 0 0.0 4.0 0.00 0.00 0.00 37 1011.8
20260503215023 81 0 0.0 3.0 0.00 0.00 0.00 40 1011.8
20260503214537 81 0 0.0 4.0 0.00 0.00 0.00 39 1011.9
20260503214021 81 0 0.0 6.0 0.00 0.00 0.00 38 1011.9
20260503213521 82 32 1.0 6.0 0.00 0.00 0.00 40 1011.8
20260503213044 81 331 1.0 5.0 0.00 0.00 0.00 42 1011.9
20260503212520 80 271 1.0 5.0 0.00 0.00 0.00 41 1012.0
20260503212019 80 308 0.0 4.0 0.00 0.00 0.00 39 1012.0
20260503211545 79 0 1.0 4.0 0.00 0.00 0.00 41 1012.0
20260503211022 81 0 0.0 4.0 0.00 0.00 0.00 40 1012.1
20260503210520 79 0 0.0 4.0 0.00 0.00 0.00 42 1012.1
20260503210039 78 0 1.0 6.0 0.00 0.00 0.00 42 1012.1
20260503205526 78 0 1.0 6.0 0.00 0.00 0.00 45 1012.3
20260503205021 78 127 1.0 9.0 0.00 0.00 0.00 44 1012.3
20260503204539 78 35 0.0 9.0 0.00 0.00 0.00 47 1012.4
20260503204022 77 105 2.0 9.0 0.00 0.00 0.00 45 1012.5
20260503203519 77 97 2.0 9.0 0.00 0.00 0.00 46 1012.6
20260503203040 76 0 1.0 9.0 0.00 0.00 0.00 48 1012.6
20260503202520 76 105 2.0 7.0 0.00 0.00 0.00 46 1012.7
20260503202020 78 0 1.0 7.0 0.00 0.00 0.00 45 1012.7
20260503201541 78 0 1.0 4.0 0.00 0.00 0.00 44 1012.8
20260503201020 77 0 1.0 7.0 0.00 0.00 0.00 46 1012.8
20260503200522 75 107 2.0 7.0 0.00 0.00 0.00 48 1012.9
20260503200041 75 103 1.0 6.0 0.00 0.00 0.00 51 1013.0
20260503195520 75 99 1.0 4.0 0.00 0.00 0.00 50 1013.0
20260503195022 76 19 0.0 3.0 0.00 0.00 0.00 49 1013.0
20260503194543 76 0 0.0 3.0 0.00 0.00 0.00 50 1013.1
20260503194020 75 0 0.0 4.0 0.00 0.00 0.00 50 1013.2
20260503193522 74 0 0.0 4.0 0.00 0.00 0.00 52 1013.2
20260503193042 74 267 1.0 5.0 0.00 0.00 0.00 53 1013.3
20260503192522 74 161 0.0 5.0 0.00 0.00 0.00 53 1013.3
20260503192022 72 60 2.0 8.0 0.00 0.00 0.00 53 1013.4
20260503191538 73 113 1.0 8.0 0.00 0.00 0.00 53 1013.5
20260503191023 73 92 1.0 7.0 0.00 0.00 0.00 53 1013.5
20260503190522 73 0 1.0 5.0 0.00 0.00 0.00 53 1013.5
20260503190041 72 0 1.0 6.0 0.00 0.00 0.00 54 1013.6
20260503185522 72 104 1.0 6.0 0.00 0.00 0.00 54 1013.6
20260503185021 71 56 1.0 6.0 0.00 0.00 0.00 54 1013.6
20260503184555 72 103 1.0 6.0 0.00 0.00 0.00 54 1013.7
20260503184022 72 0 0.0 7.0 0.00 0.00 0.00 55 1013.6
20260503183520 71 268 2.0 7.0 0.00 0.00 0.00 58 1013.8
20260503183041 71 72 2.0 6.0 0.00 0.00 0.00 56 1013.8
20260503182527 71 0 0.0 6.0 0.00 0.00 0.00 58 1013.8
20260503182026 70 94 2.0 7.0 0.00 0.00 0.00 57 1013.8
20260503181540 70 80 2.0 7.0 0.00 0.00 0.00 55 1013.9
20260503181020 70 77 2.0 7.0 0.00 0.00 0.00 55 1013.8
20260503180521 70 0 0.0 5.0 0.00 0.00 0.00 58 1013.9
20260503180038 69 111 2.0 5.0 0.00 0.00 0.00 57 1013.9
20260503175521 70 71 0.0 2.0 0.00 0.00 0.00 57 1014.0
20260503175024 69 0 0.0 3.0 0.00 0.00 0.00 58 1014.1
20260503174552 69 61 0.0 3.0 0.00 0.00 0.00 59 1014.2
20260503174022 69 0 0.0 3.0 0.00 0.00 0.00 59 1014.2
20260503173521 68 116 0.0 3.0 0.00 0.00 0.00 58 1014.2
20260503173041 68 70 0.0 6.0 0.00 0.00 0.00 58 1014.2
20260503172522 67 0 0.0 6.0 0.00 0.00 0.00 61 1014.2
20260503172022 67 115 1.0 6.0 0.00 0.00 0.00 59 1014.3
20260503171540 67 103 1.0 6.0 0.00 0.00 0.00 60 1014.3
20260503171023 67 0 0.0 4.0 0.00 0.00 0.00 59 1014.4
20260503170522 67 0 1.0 4.0 0.00 0.00 0.00 59 1014.3
20260503150522 57 0 0.0 2.0 0.00 0.00 0.00 74 1014.7
20260503131021 52 0 0.0 2.0 0.00 0.00 0.00 84 1014.7
20260503130521 52 0 0.0 2.0 0.00 0.00 0.00 85 1014.7
20260503110521 55 224 0.0 5.0 0.00 0.00 0.00 77 1015.0
20260503081546 57 0 0.0 5.0 0.00 0.00 0.00 82 1015.6
20260503081021 57 0 0.0 2.0 0.00 0.00 0.00 83 1015.5
20260503080522 57 0 0.0 2.0 0.00 0.00 0.00 82 1015.4
20260503072522 58 0 0.0 6.0 0.00 0.00 0.00 81 1015.4